| time (UTC) | temp F | wind direction | speed MPH | gust MPH | rain 1hr in | rain 24hr in | rain mn in | humidity % | barometer mb |
| 20260504070119 | 43 | 275 | 2.0 | 3.0 | 0.00 | 0.00 | 0.00 | 70 | 1015.8 |
| 20260504050508 | 42 | 269 | 2.0 | 2.0 | 0.00 | 0.00 | 0.00 | 67 | 1016.5 |
| 20260504050005 | 42 | 269 | 2.0 | 2.0 | 0.00 | 0.00 | 0.00 | 67 | 1016.5 |
| 20260504045501 | 42 | 279 | 2.0 | 3.0 | 0.00 | 0.00 | 0.00 | 66 | 1016.5 |
| 20260504044957 | 42 | 265 | 3.0 | 3.0 | 0.00 | 0.00 | 0.00 | 67 | 1016.6 |
| 20260504044454 | 41 | 261 | 3.0 | 3.0 | 0.00 | 0.00 | 0.00 | 69 | 1016.5 |
| 20260504043951 | 41 | 270 | 3.0 | 3.0 | 0.00 | 0.00 | 0.00 | 70 | 1016.6 |
| 20260504043448 | 41 | 264 | 1.0 | 2.0 | 0.00 | 0.00 | 0.00 | 70 | 1016.6 |
| 20260504042946 | 42 | 285 | 2.0 | 3.0 | 0.00 | 0.00 | 0.00 | 66 | 1016.4 |
| 20260504042442 | 42 | 254 | 2.0 | 3.0 | 0.00 | 0.00 | 0.00 | 66 | 1016.5 |
| 20260504041939 | 41 | 293 | 2.0 | 3.0 | 0.00 | 0.00 | 0.00 | 67 | 1016.5 |
| 20260504041435 | 42 | 269 | 2.0 | 3.0 | 0.00 | 0.00 | 0.00 | 66 | 1016.6 |
| 20260504040931 | 42 | 279 | 3.0 | 4.0 | 0.00 | 0.00 | 0.00 | 66 | 1016.7 |
| 20260504040429 | 42 | 286 | 4.0 | 4.0 | 0.00 | 0.00 | 0.00 | 65 | 1016.7 |
| 20260504035925 | 42 | 261 | 4.0 | 4.0 | 0.00 | 0.00 | 0.00 | 64 | 1016.8 |
| 20260504035423 | 42 | 296 | 3.0 | 4.0 | 0.00 | 0.00 | 0.00 | 65 | 1016.6 |
| 20260504034919 | 41 | 289 | 2.0 | 2.0 | 0.00 | 0.00 | 0.00 | 68 | 1016.5 |
| 20260504034417 | 41 | 289 | 2.0 | 2.0 | 0.00 | 0.00 | 0.00 | 68 | 1016.5 |
| 20260504033914 | 42 | 266 | 2.0 | 3.0 | 0.00 | 0.00 | 0.00 | 68 | 1016.5 |
| 20260504033412 | 42 | 278 | 3.0 | 4.0 | 0.00 | 0.00 | 0.00 | 66 | 1016.5 |
| 20260504032908 | 42 | 275 | 2.0 | 3.0 | 0.00 | 0.00 | 0.00 | 66 | 1016.6 |
| 20260504032405 | 42 | 268 | 1.0 | 1.0 | 0.00 | 0.00 | 0.00 | 67 | 1016.6 |
| 20260504031902 | 42 | 261 | 1.0 | 2.0 | 0.00 | 0.00 | 0.00 | 65 | 1016.4 |
| 20260504031359 | 43 | 261 | 1.0 | 1.0 | 0.00 | 0.00 | 0.00 | 65 | 1016.5 |
| 20260504030855 | 44 | 250 | 2.0 | 2.0 | 0.00 | 0.00 | 0.00 | 61 | 1016.4 |
| 20260504030353 | 44 | 284 | 3.0 | 4.0 | 0.00 | 0.00 | 0.00 | 59 | 1016.3 |
| 20260504025848 | 44 | 276 | 2.0 | 3.0 | 0.00 | 0.00 | 0.00 | 60 | 1016.5 |
| 20260504025346 | 44 | 285 | 2.0 | 3.0 | 0.00 | 0.00 | 0.00 | 61 | 1016.3 |
| 20260504024842 | 44 | 283 | 2.0 | 3.0 | 0.00 | 0.00 | 0.00 | 62 | 1016.4 |
| 20260504024339 | 43 | 279 | 3.0 | 4.0 | 0.00 | 0.00 | 0.00 | 62 | 1016.6 |
| 20260504023836 | 43 | 270 | 2.0 | 4.0 | 0.00 | 0.00 | 0.00 | 64 | 1016.3 |
| 20260504023333 | 44 | 279 | 2.0 | 3.0 | 0.00 | 0.00 | 0.00 | 63 | 1016.6 |
| 20260504022828 | 43 | 268 | 2.0 | 2.0 | 0.00 | 0.00 | 0.00 | 62 | 1016.3 |
| 20260504022325 | 43 | 244 | 2.0 | 3.0 | 0.00 | 0.00 | 0.00 | 62 | 1016.6 |
| 20260504021821 | 43 | 255 | 2.0 | 2.0 | 0.00 | 0.00 | 0.00 | 63 | 1016.4 |
| 20260504021319 | 45 | 259 | 1.0 | 2.0 | 0.00 | 0.00 | 0.00 | 60 | 1016.4 |
| 20260504020816 | 44 | 262 | 1.0 | 3.0 | 0.00 | 0.00 | 0.00 | 60 | 1016.3 |
| 20260504020313 | 45 | 267 | 2.0 | 4.0 | 0.00 | 0.00 | 0.00 | 59 | 1016.3 |
| 20260504015809 | 45 | 343 | 0.0 | 0.0 | 0.00 | 0.00 | 0.00 | 59 | 1016.3 |
| 20260504015305 | 45 | 343 | 0.0 | 0.0 | 0.00 | 0.00 | 0.00 | 61 | 1016.3 |
| 20260504014801 | 45 | 343 | 0.0 | 0.0 | 0.00 | 0.00 | 0.00 | 57 | 1016.0 |
| 20260504014257 | 45 | 343 | 0.0 | 0.0 | 0.00 | 0.00 | 0.00 | 58 | 1016.1 |
| 20260504013755 | 46 | 343 | 0.0 | 0.0 | 0.00 | 0.00 | 0.00 | 57 | 1016.1 |
| 20260504013253 | 46 | 343 | 0.0 | 0.0 | 0.00 | 0.00 | 0.00 | 54 | 1015.9 |
| 20260504012749 | 46 | 343 | 0.0 | 0.0 | 0.00 | 0.00 | 0.00 | 53 | 1015.7 |
| 20260504012247 | 47 | 343 | 0.0 | 0.0 | 0.00 | 0.00 | 0.00 | 54 | 1015.6 |
| 20260504011744 | 47 | 343 | 0.0 | 1.0 | 0.00 | 0.00 | 0.00 | 56 | 1015.8 |
| 20260504011240 | 47 | 343 | 0.0 | 1.0 | 0.00 | 0.00 | 0.00 | 56 | 1015.8 |
| 20260504010736 | 47 | 343 | 0.0 | 1.0 | 0.00 | 0.00 | 0.00 | 55 | 1015.6 |
| 20260504010232 | 47 | 343 | 1.0 | 1.0 | 0.00 | 0.00 | 0.00 | 54 | 1015.6 |
| 20260504005729 | 47 | 343 | 1.0 | 1.0 | 0.00 | 0.00 | 0.00 | 53 | 1015.6 |
| 20260504005226 | 48 | 343 | 1.0 | 2.0 | 0.00 | 0.00 | 0.00 | 54 | 1015.4 |
| 20260504004724 | 49 | 343 | 2.0 | 2.0 | 0.00 | 0.00 | 0.00 | 52 | 1015.6 |
| 20260504004221 | 49 | 343 | 0.0 | 1.0 | 0.00 | 0.00 | 0.00 | 52 | 1015.6 |
| 20260504003717 | 50 | 343 | 0.0 | 0.0 | 0.00 | 0.00 | 0.00 | 49 | 1015.5 |
| 20260504003214 | 49 | 343 | 1.0 | 2.0 | 0.00 | 0.00 | 0.00 | 51 | 1015.3 |
| 20260504002711 | 50 | 343 | 1.0 | 2.0 | 0.00 | 0.00 | 0.00 | 50 | 1015.4 |
| 20260504002208 | 51 | 343 | 1.0 | 2.0 | 0.00 | 0.00 | 0.00 | 48 | 1015.4 |
| 20260504001706 | 52 | 334 | 2.0 | 3.0 | 0.00 | 0.00 | 0.00 | 46 | 1015.5 |
| 20260504001202 | 53 | 331 | 3.0 | 3.0 | 0.00 | 0.00 | 0.00 | 41 | 1015.5 |
| 20260504000659 | 54 | 320 | 2.0 | 2.0 | 0.00 | 0.00 | 0.00 | 40 | 1015.3 |
| 20260504000156 | 55 | 318 | 1.0 | 2.0 | 0.00 | 0.00 | 0.00 | 37 | 1015.5 |
| 20260503235654 | 55 | 312 | 2.0 | 2.0 | 0.00 | 0.00 | 0.00 | 34 | 1015.3 |
| 20260503235151 | 55 | 311 | 1.0 | 2.0 | 0.00 | 0.00 | 0.00 | 34 | 1015.3 |
| 20260503234649 | 56 | 311 | 1.0 | 1.0 | 0.00 | 0.00 | 0.00 | 34 | 1015.4 |
| 20260503234147 | 56 | 328 | 4.0 | 7.0 | 0.00 | 0.00 | 0.00 | 33 | 1015.2 |
| 20260503233643 | 57 | 335 | 5.0 | 7.0 | 0.00 | 0.00 | 0.00 | 33 | 1015.2 |
| 20260503233139 | 57 | 288 | 2.0 | 6.0 | 0.00 | 0.00 | 0.00 | 33 | 1015.2 |
| 20260503232636 | 57 | 318 | 3.0 | 6.0 | 0.00 | 0.00 | 0.00 | 32 | 1015.3 |
| 20260503232133 | 57 | 273 | 2.0 | 4.0 | 0.00 | 0.00 | 0.00 | 33 | 1015.4 |
| 20260503231632 | 58 | 318 | 2.0 | 2.0 | 0.00 | 0.00 | 0.00 | 31 | 1015.2 |
| 20260503231127 | 58 | 281 | 3.0 | 9.0 | 0.00 | 0.00 | 0.00 | 32 | 1015.2 |
| 20260503230625 | 58 | 351 | 2.0 | 4.0 | 0.00 | 0.00 | 0.00 | 31 | 1015.2 |
| 20260503230122 | 58 | 306 | 5.0 | 6.0 | 0.00 | 0.00 | 0.00 | 31 | 1015.2 |
| 20260503225619 | 59 | 350 | 4.0 | 8.0 | 0.00 | 0.00 | 0.00 | 31 | 1015.2 |
| 20260503225119 | 59 | 272 | 2.0 | 2.0 | 0.00 | 0.00 | 0.00 | 32 | 1015.3 |
| 20260503224616 | 59 | 327 | 3.0 | 7.0 | 0.00 | 0.00 | 0.00 | 33 | 1015.1 |
| 20260503224114 | 58 | 317 | 2.0 | 3.0 | 0.00 | 0.00 | 0.00 | 32 | 1015.1 |
| 20260503223612 | 58 | 288 | 5.0 | 7.0 | 0.00 | 0.00 | 0.00 | 30 | 1015.2 |
| 20260503223108 | 59 | 359 | 7.0 | 8.0 | 0.00 | 0.00 | 0.00 | 30 | 1014.9 |
| 20260503222606 | 60 | 253 | 2.0 | 3.0 | 0.00 | 0.00 | 0.00 | 32 | 1015.1 |
| 20260503222103 | 59 | 279 | 2.0 | 8.0 | 0.00 | 0.00 | 0.00 | 30 | 1014.8 |
| 20260503221601 | 60 | 345 | 2.0 | 6.0 | 0.00 | 0.00 | 0.00 | 30 | 1015.4 |
| 20260503221058 | 60 | 341 | 3.0 | 4.0 | 0.00 | 0.00 | 0.00 | 30 | 1015.3 |
| 20260503220555 | 60 | 333 | 2.0 | 6.0 | 0.00 | 0.00 | 0.00 | 31 | 1015.2 |
| 20260503220052 | 60 | 343 | 6.0 | 7.0 | 0.00 | 0.00 | 0.00 | 30 | 1015.3 |
| 20260503215549 | 60 | 319 | 4.0 | 8.0 | 0.00 | 0.00 | 0.00 | 30 | 1015.2 |
| 20260503215046 | 60 | 358 | 11.0 | 14.0 | 0.00 | 0.00 | 0.00 | 29 | 1015.2 |
| 20260503214544 | 60 | 320 | 7.0 | 10.0 | 0.00 | 0.00 | 0.00 | 30 | 1015.2 |
| 20260503214040 | 59 | 50 | 8.0 | 9.0 | 0.00 | 0.00 | 0.00 | 29 | 1015.3 |
| 20260503213539 | 60 | 37 | 6.0 | 13.0 | 0.00 | 0.00 | 0.00 | 30 | 1015.6 |
| 20260503213035 | 59 | 345 | 6.0 | 10.0 | 0.00 | 0.00 | 0.00 | 30 | 1015.4 |
| 20260503212532 | 60 | 277 | 11.0 | 14.0 | 0.00 | 0.00 | 0.00 | 30 | 1015.2 |
| 20260503212030 | 61 | 311 | 6.0 | 7.0 | 0.00 | 0.00 | 0.00 | 30 | 1015.1 |
| 20260503211526 | 60 | 291 | 3.0 | 4.0 | 0.00 | 0.00 | 0.00 | 31 | 1015.3 |
| 20260503211022 | 60 | 293 | 8.0 | 11.0 | 0.00 | 0.00 | 0.00 | 29 | 1015.6 |
| 20260503210519 | 60 | 315 | 5.0 | 9.0 | 0.00 | 0.00 | 0.00 | 30 | 1015.3 |
| 20260503210015 | 59 | 72 | 8.0 | 9.0 | 0.00 | 0.00 | 0.00 | 32 | 1015.6 |
| 20260503205512 | 59 | 355 | 7.0 | 10.0 | 0.00 | 0.00 | 0.00 | 30 | 1015.4 |
| 20260503205008 | 58 | 305 | 10.0 | 11.0 | 0.00 | 0.00 | 0.00 | 31 | 1015.5 |
| 20260503204505 | 61 | 332 | 7.0 | 10.0 | 0.00 | 0.00 | 0.00 | 30 | 1015.7 |
| 20260503204002 | 60 | 317 | 9.0 | 16.0 | 0.00 | 0.00 | 0.00 | 30 | 1015.6 |
| 20260503203459 | 60 | 98 | 2.0 | 6.0 | 0.00 | 0.00 | 0.00 | 31 | 1015.4 |
| 20260503202955 | 59 | 308 | 3.0 | 4.0 | 0.00 | 0.00 | 0.00 | 30 | 1015.3 |
| 20260503202454 | 59 | 303 | 6.0 | 11.0 | 0.00 | 0.00 | 0.00 | 31 | 1015.7 |
| 20260503201952 | 60 | 313 | 7.0 | 11.0 | 0.00 | 0.00 | 0.00 | 34 | 1015.6 |
| 20260503201450 | 59 | 284 | 7.0 | 9.0 | 0.00 | 0.00 | 0.00 | 32 | 1015.5 |
| 20260503200947 | 60 | 12 | 7.0 | 10.0 | 0.00 | 0.00 | 0.00 | 30 | 1015.8 |
| 20260503200443 | 59 | 318 | 8.0 | 13.0 | 0.00 | 0.00 | 0.00 | 30 | 1015.8 |
| 20260503195940 | 59 | 58 | 2.0 | 11.0 | 0.00 | 0.00 | 0.00 | 31 | 1016.1 |
| 20260503195437 | 61 | 336 | 3.0 | 7.0 | 0.00 | 0.00 | 0.00 | 34 | 1015.9 |
| 20260503194933 | 59 | 62 | 2.0 | 14.0 | 0.00 | 0.00 | 0.00 | 30 | 1015.9 |
| 20260503194430 | 59 | 352 | 5.0 | 11.0 | 0.00 | 0.00 | 0.00 | 32 | 1016.0 |
| 20260503193926 | 58 | 261 | 9.0 | 16.0 | 0.00 | 0.00 | 0.00 | 31 | 1016.3 |
| 20260503193421 | 58 | 307 | 10.0 | 13.0 | 0.00 | 0.00 | 0.00 | 32 | 1016.1 |
| 20260503192917 | 58 | 262 | 5.0 | 9.0 | 0.00 | 0.00 | 0.00 | 32 | 1016.2 |
| 20260503192414 | 60 | 315 | 6.0 | 17.0 | 0.00 | 0.00 | 0.00 | 33 | 1016.3 |
| 20260503191909 | 59 | 2 | 4.0 | 6.0 | 0.00 | 0.00 | 0.00 | 33 | 1016.4 |
| 20260503191408 | 58 | 50 | 1.0 | 6.0 | 0.00 | 0.00 | 0.00 | 34 | 1016.4 |
| 20260503190903 | 58 | 326 | 8.0 | 13.0 | 0.00 | 0.00 | 0.00 | 31 | 1016.4 |
| 20260503190401 | 58 | 23 | 5.0 | 11.0 | 0.00 | 0.00 | 0.00 | 34 | 1016.4 |
| 20260503185857 | 57 | 304 | 7.0 | 16.0 | 0.00 | 0.00 | 0.00 | 31 | 1016.5 |
| 20260503185354 | 58 | 271 | 9.0 | 11.0 | 0.00 | 0.00 | 0.00 | 32 | 1016.6 |
| 20260503184854 | 57 | 324 | 6.0 | 10.0 | 0.00 | 0.00 | 0.00 | 32 | 1016.7 |
| 20260503184350 | 58 | 308 | 2.0 | 6.0 | 0.00 | 0.00 | 0.00 | 32 | 1016.6 |
| 20260503183846 | 58 | 300 | 2.0 | 7.0 | 0.00 | 0.00 | 0.00 | 32 | 1016.9 |
| 20260503183343 | 58 | 295 | 3.0 | 11.0 | 0.00 | 0.00 | 0.00 | 31 | 1016.9 |
| 20260503182840 | 57 | 313 | 7.0 | 8.0 | 0.00 | 0.00 | 0.00 | 33 | 1016.8 |
| 20260503182340 | 58 | 346 | 6.0 | 13.0 | 0.00 | 0.00 | 0.00 | 32 | 1016.7 |
| 20260503181836 | 57 | 34 | 1.0 | 7.0 | 0.00 | 0.00 | 0.00 | 36 | 1016.8 |
| 20260503181333 | 57 | 338 | 4.0 | 9.0 | 0.00 | 0.00 | 0.00 | 31 | 1016.7 |
| 20260503180829 | 57 | 339 | 2.0 | 3.0 | 0.00 | 0.00 | 0.00 | 32 | 1016.8 |
| 20260503180328 | 56 | 321 | 4.0 | 15.0 | 0.00 | 0.00 | 0.00 | 33 | 1016.9 |
| 20260503175824 | 57 | 299 | 7.0 | 11.0 | 0.00 | 0.00 | 0.00 | 31 | 1016.9 |
| 20260503175322 | 56 | 3 | 3.0 | 15.0 | 0.00 | 0.00 | 0.00 | 33 | 1017.1 |
| 20260503174817 | 56 | 323 | 2.0 | 15.0 | 0.00 | 0.00 | 0.00 | 31 | 1017.0 |
| 20260503174316 | 56 | 291 | 8.0 | 10.0 | 0.00 | 0.00 | 0.00 | 33 | 1017.0 |
| 20260503173811 | 56 | 10 | 8.0 | 14.0 | 0.00 | 0.00 | 0.00 | 30 | 1017.3 |
| 20260503173307 | 55 | 32 | 9.0 | 10.0 | 0.00 | 0.00 | 0.00 | 33 | 1017.0 |
| 20260503172804 | 54 | 340 | 4.0 | 8.0 | 0.00 | 0.00 | 0.00 | 34 | 1017.1 |
| 20260503172301 | 54 | 19 | 7.0 | 13.0 | 0.00 | 0.00 | 0.00 | 34 | 1017.3 |
| 20260503171757 | 55 | 57 | 8.0 | 11.0 | 0.00 | 0.00 | 0.00 | 33 | 1017.5 |
| 20260503171254 | 54 | 284 | 10.0 | 14.0 | 0.00 | 0.00 | 0.00 | 36 | 1017.5 |
| 20260503170752 | 54 | 329 | 3.0 | 4.0 | 0.00 | 0.00 | 0.00 | 36 | 1017.5 |
| 20260503170248 | 54 | 23 | 9.0 | 17.0 | 0.00 | 0.00 | 0.00 | 37 | 1017.7 |
| 20260503160210 | 51 | 266 | 4.0 | 7.0 | 0.00 | 0.00 | 0.00 | 45 | 1018.4 |
| 20260503150641 | 49 | 314 | 4.0 | 11.0 | 0.00 | 0.00 | 0.00 | 45 | 1018.7 |
| 20260503150136 | 47 | 289 | 4.0 | 13.0 | 0.00 | 0.00 | 0.00 | 46 | 1018.8 |
| 20260503131030 | 45 | 331 | 4.0 | 13.0 | 0.00 | 0.00 | 0.00 | 54 | 1018.4 |
| 20260503130527 | 44 | 340 | 9.0 | 13.0 | 0.00 | 0.00 | 0.00 | 55 | 1018.6 |
| 20260503110418 | 39 | 303 | 0.0 | 1.0 | 0.00 | 0.00 | 0.00 | 71 | 1017.7 |
| 20260503090309 | 39 | 350 | 1.0 | 1.0 | 0.00 | 0.00 | 0.00 | 71 | 1016.8 |
| 20260503081242 | 40 | 306 | 1.0 | 1.0 | 0.00 | 0.00 | 0.00 | 70 | 1016.7 |
| 20260503080737 | 40 | 291 | 1.0 | 1.0 | 0.00 | 0.00 | 0.00 | 70 | 1016.6 |
| 20260503080235 | 40 | 44 | 2.0 | 3.0 | 0.00 | 0.00 | 0.00 | 70 | 1016.6 |